Lafayette, CO

2:09 PM MDT on August 28, 2016 (GMT -0600)
Erie Municipal Airport

Weather History for KEIK - September, 2012

Change the Weather History Date:

Friday, September 28, 2012

  Actual Average (KBDU) Record (KBDU)
Temperature  
Mean Temperature 56 °F -  
Max Temperature 71 °F - 79 °F (2015)
Min Temperature 42 °F - 37 °F (2013)
Degree Days  
Heating Degree Days 8    
Month to date heating degree days  
Cooling Degree Days 0    
Month to date cooling degree days  
Growing Degree Days 6 (Base 50)    
Moisture  
Dew Point 45 °F    
Average Humidity 74    
Maximum Humidity 100    
Minimum Humidity 27    
Precipitation  
Precipitation 0.00 in - 0.00 in (2016)
Sea Level Pressure  
Sea Level Pressure 30.20 in    
Wind  
Wind Speed 1 mph (East)    
Max Wind Speed 8 mph    
Max Gust Speed -    
Visibility 8 miles    
Events Fog    
T = Trace of Precipitation, MM = Missing Value Source: NWS Daily Summary

Daily Weather History Graph

Daily Weather History Graph

Search for Another Location

Airport or City:

Trip Planner

Search our weather history database for the weather conditions in past years. The results will help you decide how hot, cold, wet, or windy it might be!

Date:

Astronomy

Sep. 28, 2012 Rise Set
Actual Time 6:54 AM MDT 6:46 PM MDT
Civil Twilight 6:27 AM MDT 7:13 PM MDT
Nautical Twilight 5:55 AM MDT 7:44 PM MDT
Astronomical Twilight 5:23 AM MDT 8:16 PM MDT
Moon 5:50 PM MDT 5:27 AM MDT
Length of Visible Light 12h 46m
Length of Day
11h 52m
Waxing Gibbous, 98% of the Moon is Illuminated
Sep 28
Waxing Gibbous
Sep 29
Full
Oct 8
Last Quarter
Oct 15
New
Oct 21
First Quarter

Hourly Weather History & Observations

Time (MDT) Temp. Windchill Dew Point Humidity Pressure Visibility Wind Dir Wind Speed Gust Speed Precip Events Conditions
12:14 AM 49.8 °F - 48.2 °F 94% 30.23 in 10.0 mi Calm Calm - N/A   Clear
12:34 AM 49.5 °F - 48.0 °F 95% 30.22 in 10.0 mi SSW 5.8 mph - N/A   Clear
12:54 AM 49.5 °F - 48.2 °F 95% 30.22 in 10.0 mi Calm Calm - N/A   Clear
1:14 AM 49.8 °F - 48.0 °F 94% 30.22 in 10.0 mi Calm Calm - N/A   Clear
1:34 AM 49.6 °F - 47.7 °F 93% 30.22 in 10.0 mi Calm Calm - N/A   Clear
1:54 AM 48.4 °F - 46.6 °F 93% 30.22 in 10.0 mi Calm Calm - N/A   Clear
2:14 AM 47.7 °F - 45.7 °F 93% 30.21 in 10.0 mi Calm Calm - N/A   Clear
2:34 AM 46.4 °F 45.2 °F 44.8 °F 94% 30.21 in 10.0 mi SW 3.5 mph - N/A   Clear
2:54 AM 46.2 °F - 45.0 °F 95% 30.21 in 10.0 mi Calm Calm - N/A   Clear
3:14 AM 46.4 °F - 45.0 °F 95% 30.21 in 10.0 mi Calm Calm - N/A   Clear
3:34 AM 46.2 °F - 44.6 °F 94% 30.20 in 10.0 mi Calm Calm - N/A   Clear
3:54 AM 45.5 °F - 44.1 °F 95% 30.21 in 10.0 mi Calm Calm - N/A   Clear
4:14 AM 44.4 °F - 43.7 °F 97% 30.21 in 10.0 mi Calm Calm - N/A   Clear
4:34 AM 44.2 °F - 43.2 °F 96% 30.21 in 10.0 mi Calm Calm - N/A   Clear
4:54 AM 43.2 °F - 42.4 °F 97% 30.22 in 10.0 mi Calm Calm - N/A   Clear
5:14 AM 43.7 °F - 43.0 °F 97% 30.22 in 10.0 mi Calm Calm - N/A   Clear
5:34 AM 42.3 °F - 41.7 °F 98% 30.22 in 10.0 mi Calm Calm - N/A   Clear
5:54 AM 42.1 °F - 41.9 °F 99% 30.22 in 10.0 mi Calm Calm - N/A   Clear
6:14 AM 42.6 °F - 42.1 °F 98% 30.23 in 10.0 mi Calm Calm - N/A   Clear
6:34 AM 42.1 °F - 41.5 °F 98% 30.23 in 10.0 mi Calm Calm - N/A   Mostly Cloudy
6:54 AM 44.1 °F - 43.7 °F 99% 30.23 in 0.8 mi Calm Calm - N/A   Overcast
7:14 AM 45.1 °F - 45.0 °F 99% 30.24 in 0.2 mi Calm Calm - N/A Fog Fog
7:34 AM 45.5 °F - 45.5 °F 100% 30.24 in 0.2 mi Calm Calm - N/A Fog Fog
7:44 AM 45.5 °F - 45.5 °F 100% 30.25 in 0.2 mi Calm Calm - N/A Fog Fog
8:14 AM 45.7 °F - 45.7 °F 100% 30.25 in 0.2 mi Calm Calm - N/A Fog Fog
8:34 AM 46.4 °F - 46.4 °F 100% 30.26 in 0.2 mi Calm Calm - N/A Fog Fog
8:54 AM 47.1 °F - 47.1 °F 100% 30.26 in 0.2 mi Calm Calm - N/A Fog Fog
9:14 AM 47.5 °F - 47.5 °F 100% 30.26 in 0.2 mi Calm Calm - N/A Fog Fog
9:34 AM 48.4 °F - 48.4 °F 100% 30.26 in 0.2 mi Calm Calm - N/A Fog Fog
9:54 AM 48.9 °F - 48.9 °F 100% 30.26 in 0.2 mi Calm Calm - N/A Fog Fog
10:14 AM 49.1 °F - 49.1 °F 100% 30.26 in 2.5 mi Calm Calm - N/A   Overcast
10:34 AM 50.9 °F - 50.9 °F 100% 30.26 in 7.0 mi Calm Calm - N/A   Mostly Cloudy
10:54 AM 52.0 °F - 52.0 °F 100% 30.26 in 5.0 mi Calm Calm - N/A   Mostly Cloudy
11:14 AM 53.8 °F - 53.8 °F 100% 30.25 in 7.0 mi NNE 3.5 mph - N/A   Scattered Clouds
11:34 AM 55.4 °F - 54.7 °F 97% 30.25 in 7.0 mi Calm Calm - N/A   Clear
11:54 AM 60.6 °F - 52.0 °F 73% 30.24 in 7.0 mi Calm Calm - N/A   Clear
12:14 PM 62.6 °F - 49.3 °F 62% 30.23 in 10.0 mi ENE 3.5 mph - N/A   Clear
12:34 PM 64.4 °F - 50.0 °F 59% 30.22 in 10.0 mi Calm Calm - N/A   Clear
12:54 PM 66.9 °F - 48.7 °F 52% 30.21 in 10.0 mi East 4.6 mph - N/A   Clear
1:14 PM 67.3 °F - 47.7 °F 49% 30.20 in 10.0 mi North 3.5 mph - N/A   Clear
1:34 PM 68.5 °F - 46.0 °F 44% 30.18 in 10.0 mi NNE 4.6 mph - N/A   Clear
1:54 PM 70.7 °F - 42.8 °F 36% 30.18 in 10.0 mi NE 3.5 mph - N/A   Clear
2:14 PM 70.5 °F - 40.3 °F 33% 30.17 in 10.0 mi Calm Calm - N/A   Clear
2:34 PM 70.3 °F - 39.9 °F 33% 30.17 in 10.0 mi East 6.9 mph - N/A   Clear
2:54 PM 70.9 °F - 39.4 °F 32% 30.17 in 10.0 mi SE 4.6 mph - N/A   Clear
3:14 PM 70.9 °F - 38.5 °F 31% 30.17 in 10.0 mi East 4.6 mph - N/A   Clear
3:34 PM 71.2 °F - 38.5 °F 30% 30.17 in 10.0 mi ESE 4.6 mph - N/A   Clear
3:54 PM 71.1 °F - 36.9 °F 29% 30.16 in 10.0 mi Calm Calm - N/A   Clear
4:14 PM 70.9 °F - 36.9 °F 29% 30.15 in 10.0 mi SSW 3.5 mph - N/A   Clear
4:34 PM 71.4 °F - 37.8 °F 29% 30.15 in 10.0 mi East 3.5 mph - N/A   Clear
4:54 PM 71.1 °F - 36.3 °F 28% 30.15 in 10.0 mi NE 6.9 mph - N/A   Clear
5:14 PM 70.7 °F - 35.1 °F 27% 30.15 in 10.0 mi NE 4.6 mph - N/A   Clear
5:34 PM 70.7 °F - 37.4 °F 30% 30.15 in 10.0 mi ESE 8.1 mph - N/A   Clear
5:54 PM 69.8 °F - 37.4 °F 31% 30.16 in 10.0 mi East 4.6 mph - N/A   Clear
6:14 PM 68.5 °F - 36.7 °F 31% 30.15 in 10.0 mi East 4.6 mph - N/A   Clear
6:34 PM 66.7 °F - 39.2 °F 36% 30.15 in 10.0 mi Calm Calm - N/A   Clear
6:54 PM 64.9 °F - 41.7 °F 43% 30.16 in 10.0 mi Calm Calm - N/A   Clear
7:14 PM 61.9 °F - 43.2 °F 50% 30.15 in 10.0 mi East 3.5 mph - N/A   Clear
7:34 PM 61.2 °F - 44.2 °F 54% 30.16 in 10.0 mi East 3.5 mph - N/A   Clear
7:54 PM 59.7 °F - 45.1 °F 59% 30.16 in 10.0 mi Calm Calm - N/A   Clear
8:14 PM 58.5 °F - 45.9 °F 63% 30.17 in 10.0 mi Calm Calm - N/A   Clear
8:34 PM 55.4 °F - 46.6 °F 72% 30.17 in 10.0 mi Calm Calm - N/A   Clear
8:54 PM 55.4 °F - 46.4 °F 72% 30.18 in 10.0 mi Calm Calm - N/A   Clear
9:14 PM 54.1 °F - 46.4 °F 75% 30.18 in 10.0 mi Calm Calm - N/A   Clear
9:34 PM 54.5 °F - 46.2 °F 74% 30.18 in 10.0 mi Calm Calm - N/A   Clear
9:54 PM 54.1 °F - 46.0 °F 74% 30.19 in 10.0 mi Calm Calm - N/A   Clear
10:14 PM 52.0 °F - 46.4 °F 81% 30.18 in 10.0 mi SSW 3.5 mph - N/A   Clear
10:34 PM 52.0 °F - 46.4 °F 81% 30.19 in 10.0 mi Calm Calm - N/A   Clear
10:54 PM 50.2 °F - 46.6 °F 87% 30.18 in 10.0 mi Calm Calm - N/A   Clear
11:14 PM 50.4 °F - 46.4 °F 86% 30.18 in 10.0 mi Calm Calm - N/A   Clear
11:34 PM 50.2 °F - 46.4 °F 87% 30.18 in 10.0 mi Calm Calm - N/A   Clear
11:54 PM 49.3 °F - 45.9 °F 88% 30.17 in 10.0 mi Calm Calm - N/A   Clear